Showing default

TIROS 9, 978

Orbit data source: Space-Track

TIROS 9, 978 is a payload satellite owned by GSFC (US) in SSO that was launched on Fri, 22 Jan 1965 UTC via a THOR DELTA C launch vehicle from the Air Force Eastern Test Range (AFETR). Payload-class satellites include a variety of spacecraft equipped with specific instruments for various scientific and technological missions. These include communications satellites like Starlink; space stations such as the ISS; scientific satellites like the Hubble; Earth observation satellites from companies like Planet Labs, Umbra, and HawkEye 360; GPS; miniature CubeSats for education and research; and military/defense satellites.

Loading next visibility...
Identifier
978, 1965-004A
Orbit
SSO
Country
Flag of USUS
Related business
Manufacturer
RCA/East Windsor
Mission
Non-operational Civil Weather
Bus & Motor
TIROS I, Unknown motor
Mass
138 kg wet, 138 kg dry
Launch date (UTC)
1965-01-22 (61 years ago)
Launch vehicle
THOR DELTA C
Launch site
Air Force Eastern Test Range (AFETR)
Object type
Payload
Rocket body
Debris
Shape & HBR
Cyl, 0.5 m
Radar Cross Section
0.920 m², Medium (>0.1 m² and < 1m²)

Expand to show TLE details & history
Last TLE update: 15 hours ago

TLE from 15 hours ago
0 TIROS 9
1 00978U 65004A   25260.76633459  .00000139  00000-0  20413-3 0  9993
2 00978  96.4026 178.1620 1156427 264.0635  82.7752 12.11117144678634
Epoch: 2025-09-17T18:23Z
TLE epoch observation values (Epoch: 2025-09-17T18:23:31.308Z)
Latitude
Longitude
-94.65602°
Altitude
1,624.49 km
Speed
7.063 km/s
True Right ascension
11h 52m 38s
True Declination
0° 00' 00"
Sunlit
Object was in daylight at epoch
Visualization orbit readout
Latitude
Unknown
Longitude
Unknown
Altitude
Unknown
Speed
Unknown
Apparent Right ascension
Unknown
Apparent Declination
Unknown
Sunlit
N/A
Visualization observer readout
Local Sidereal Time
01:52:29
Azimuth
Unknown
Elevation
Unknown
Doppler factor
Unknown
Orbital elements
Apogee altitude
2,554.713 km
Perigee altitude
702.832 km
Semi-major axis
8,006.909 km
Eccentricity
0.11564
Inclination
96.4026°
RAAN
178.162°
Arg. of periapsis
264.0635°
True anomaly
96.04503°
Mean anomaly
82.7752°
Eccentric anomaly
89.40068°
Mean motion
3.02932 °/min
Orbital period
118.84 mins
BSTAR
0.00020413
Loading maneuver chart data...
Computing Atmospheric mass density...
Loading historical data...
Loading historical data...
Loading historical data...
Loading historical data...
Loading historical data...
Loading historical data...
Loading historical data...
Other satellites on launch #4 in the year 1965 (1965-01-22 UTC)

Documentation

Showing up to 5 results
|